When you browse on this site, cookies collect data to enhance your experience and personalize the content and advertising you see.
Visit our Privacy Policy to learn more. By continuing to use the site, you agree to this use of cookies and data.
  • In Austria
  • List of Countries
  • For 7 days
  • Water Temperature
  • Satellite Maps
  • Weather Map
  • News
  • Weather Widgets
  • user-avatar
    Login

    Hourly Weather Holhol

    Today, 21 January, Monday

    Time Temperature Precipitation Wind Pressure Humidity
    00:00 +22°C° 0 mm 4 mps 717 mmHg 79%
    01:00 +22°C° 0 mm 4 mps 717 mmHg 80%
    02:00 +21°C° 0 mm 4 mps 716 mmHg 80%
    03:00 +21°C° 0 mm 3 mps 716 mmHg 81%
    04:00 +21°C° 0 mm 3 mps 716 mmHg 81%
    05:00 +21°C° 0 mm 3 mps 717 mmHg 82%
    06:00 +20°C° 0 mm 2 mps 717 mmHg 83%
    07:00 +21°C° 0 mm 3 mps 717 mmHg 77%
    08:00 +22°C° 0 mm 3 mps 718 mmHg 71%
    09:00 +23°C° 0 mm 4 mps 718 mmHg 65%
    10:00 +25°C° 0 mm 4 mps 718 mmHg 59%
    11:00 +27°C° 0 mm 5 mps 718 mmHg 53%
    12:00 +28°C° 0 mm 5 mps 718 mmHg 46%
    13:00 +28°C° 0 mm 5 mps 718 mmHg 45%
    14:00 +29°C° 0 mm 6 mps 717 mmHg 44%
    15:00 +29°C° 0 mm 6 mps 716 mmHg 42%
    16:00 +28°C° 0 mm 6 mps 716 mmHg 48%
    17:00 +27°C° 0 mm 6 mps 716 mmHg 54%
    18:00 +26°C° 0 mm 6 mps 716 mmHg 59%
    19:00 +25°C° 0 mm 5 mps 716 mmHg 64%
    20:00 +23°C° 0 mm 5 mps 716 mmHg 68%
    21:00 +23°C° 0 mm 5 mps 716 mmHg 73%
    22:00 +22°C° 0 mm 4 mps 716 mmHg 75%
    23:00 +22°C° 0 mm 4 mps 716 mmHg 77%

    Tomorrow, 22 January, Tuesday

    Time Temperature Precipitation Wind Pressure Humidity
    00:00 +22°C° 0 mm 4 mps 716 mmHg 79%
    01:00 +22°C° 0 mm 4 mps 715 mmHg 80%
    02:00 +22°C° 0 mm 3 mps 715 mmHg 81%
    03:00 +21°C° 0 mm 3 mps 715 mmHg 82%
    04:00 +21°C° 0 mm 3 mps 715 mmHg 83%
    05:00 +21°C° 0 mm 3 mps 715 mmHg 84%
    06:00 +21°C° 0 mm 2 mps 716 mmHg 85%
    07:00 +22°C° 0 mm 3 mps 716 mmHg 80%
    08:00 +24°C° 0 mm 3 mps 717 mmHg 75%
    09:00 +23°C° 0 mm 4 mps 717 mmHg 71%
    10:00 +26°C° 0 mm 4 mps 717 mmHg 64%
    11:00 +27°C° 0 mm 4 mps 717 mmHg 57%
    12:00 +28°C° 0 mm 4 mps 717 mmHg 51%
    13:00 +29°C° 0 mm 5 mps 716 mmHg 50%
    14:00 +29°C° 0 mm 6 mps 715 mmHg 49%
    15:00 +29°C° 0 mm 6 mps 715 mmHg 48%
    16:00 +28°C° 0 mm 6 mps 715 mmHg 54%
    17:00 +27°C° 0 mm 6 mps 715 mmHg 60%
    18:00 +26°C° 0 mm 6 mps 714 mmHg 66%
    19:00 +24°C° 0 mm 6 mps 715 mmHg 70%
    20:00 +25°C° 0 mm 5 mps 715 mmHg 74%
    21:00 +23°C° 0 mm 5 mps 716 mmHg 78%
    22:00 +23°C° 0 mm 5 mps 715 mmHg 78%
    23:00 +23°C° 0 mm 4 mps 715 mmHg 78%

    Day after tomorrow, 23 January, Wednesday

    Time Temperature Precipitation Wind Pressure Humidity
    00:00 +22°C° 0 mm 4 mps 715 mmHg 77%
    01:00 +22°C° 0 mm 4 mps 715 mmHg 78%
    02:00 +22°C° 0 mm 4 mps 714 mmHg 78%
    03:00 +22°C° 0 mm 4 mps 714 mmHg 78%
    04:00 +22°C° 0 mm 4 mps 714 mmHg 79%
    05:00 +22°C° 0 mm 4 mps 715 mmHg 80%
    06:00 +22°C° 0 mm 3 mps 715 mmHg 80%
    07:00 +22°C° 0 mm 4 mps 716 mmHg 77%
    08:00 +23°C° 0 mm 4 mps 716 mmHg 73%
    09:00 +23°C° 0 mm 5 mps 717 mmHg 69%
    10:00 +25°C° 0 mm 5 mps 717 mmHg 65%
    11:00 +26°C° 0 mm 5 mps 716 mmHg 60%
    12:00 +27°C° 0 mm 6 mps 716 mmHg 56%
    13:00 +28°C° 0 mm 6 mps 715 mmHg 54%
    14:00 +28°C° 0 mm 6 mps 715 mmHg 52%
    15:00 +28°C° 0 mm 7 mps 714 mmHg 50%
    16:00 +27°C° 0 mm 7 mps 714 mmHg 56%
    17:00 +26°C° 0 mm 6 mps 714 mmHg 61%
    18:00 +24°C° 0 mm 6 mps 714 mmHg 67%
    19:00 +24°C° 0 mm 6 mps 715 mmHg 70%
    20:00 +23°C° 0 mm 5 mps 716 mmHg 74%
    21:00 +22°C° 0 mm 5 mps 716 mmHg 77%
    22:00 +22°C° 0 mm 5 mps 716 mmHg 78%
    23:00 +22°C° 0 mm 4 mps 716 mmHg 78%

    24 January, Thursday

    Time Temperature Precipitation Wind Pressure Humidity
    00:00 +22°C° 0 mm 4 mps 716 mmHg 78%
    01:00 +22°C° 0 mm 4 mps 716 mmHg 78%
    02:00 +22°C° 0 mm 4 mps 715 mmHg 79%
    03:00 +21°C° 0 mm 4 mps 715 mmHg 79%
    04:00 +21°C° 0 mm 4 mps 715 mmHg 79%
    05:00 +21°C° 0 mm 4 mps 716 mmHg 79%
    06:00 +21°C° 0 mm 4 mps 716 mmHg 78%
    07:00 +22°C° 0 mm 5 mps 717 mmHg 75%
    08:00 +23°C° 0 mm 5 mps 717 mmHg 71%
    09:00 +23°C° 0 mm 5 mps 718 mmHg 67%
    10:00 +24°C° 0 mm 6 mps 718 mmHg 62%
    11:00 +26°C° 0 mm 6 mps 717 mmHg 56%
    12:00 +27°C° 0 mm 6 mps 717 mmHg 51%
    13:00 +28°C° 0 mm 6 mps 716 mmHg 51%
    14:00 +28°C° 0 mm 6 mps 715 mmHg 51%
    15:00 +28°C° 0 mm 7 mps 715 mmHg 52%
    16:00 +27°C° 0 mm 6 mps 715 mmHg 58%
    17:00 +26°C° 0 mm 6 mps 715 mmHg 65%
    18:00 +24°C° 0 mm 6 mps 715 mmHg 71%
    19:00 +24°C° 0 mm 6 mps 716 mmHg 73%
    20:00 +23°C° 0 mm 5 mps 716 mmHg 76%
    21:00 +23°C° 0 mm 5 mps 717 mmHg 78%
    22:00 +23°C° 0 mm 5 mps 716 mmHg 78%
    23:00 +23°C° 0 mm 5 mps 716 mmHg 79%

    25 January, Friday

    Time Temperature Precipitation Wind Pressure Humidity
    00:00 +23°C° 0 mm 5 mps 716 mmHg 80%
    01:00 +22°C° 0.1 mm 5 mps 716 mmHg 81%
    02:00 +22°C° 0.1 mm 5 mps 716 mmHg 82%
    03:00 +22°C° 0.1 mm 5 mps 715 mmHg 82%
    04:00 +22°C° 0.1 mm 5 mps 716 mmHg 82%
    05:00 +22°C° 0.1 mm 6 mps 716 mmHg 81%
    06:00 +22°C° 0.1 mm 6 mps 716 mmHg 81%
    07:00 +22°C° 0 mm 6 mps 717 mmHg 77%
    08:00 +23°C° 0 mm 6 mps 718 mmHg 73%
    09:00 +23°C° 0 mm 6 mps 718 mmHg 69%
    10:00 +24°C° 0 mm 6 mps 718 mmHg 64%
    11:00 +26°C° 0 mm 6 mps 718 mmHg 58%
    12:00 +27°C° 0 mm 6 mps 718 mmHg 52%
    13:00 +28°C° 0 mm 7 mps 717 mmHg 53%
    14:00 +28°C° 0 mm 7 mps 716 mmHg 53%
    15:00 +28°C° 0 mm 7 mps 715 mmHg 53%
    16:00 +27°C° 0 mm 7 mps 716 mmHg 57%
    17:00 +26°C° 0 mm 7 mps 716 mmHg 62%
    18:00 +24°C° 0 mm 6 mps 716 mmHg 66%
    19:00 +24°C° 0 mm 6 mps 716 mmHg 70%
    20:00 +23°C° 0 mm 5 mps 716 mmHg 73%
    21:00 +23°C° 0 mm 5 mps 717 mmHg 77%
    22:00 +23°C° 0 mm 5 mps 717 mmHg 77%
    23:00 +22°C° 0 mm 5 mps 717 mmHg 78%

    26 January, Saturday

    Time Temperature Precipitation Wind Pressure Humidity
    00:00 +22°C° 0 mm 5 mps 716 mmHg 78%
    01:00 +22°C° 0 mm 5 mps 716 mmHg 78%
    02:00 +22°C° 0 mm 5 mps 716 mmHg 78%
    03:00 +22°C° 0 mm 6 mps 716 mmHg 78%
    04:00 +22°C° 0.1 mm 6 mps 716 mmHg 79%
    05:00 +22°C° 0.1 mm 6 mps 716 mmHg 80%
    06:00 +22°C° 0.1 mm 6 mps 717 mmHg 80%
    07:00 +22°C° 0.1 mm 6 mps 717 mmHg 77%
    08:00 +23°C° 0.1 mm 6 mps 718 mmHg 74%
    09:00 +23°C° 0.1 mm 7 mps 719 mmHg 71%
    10:00 +24°C° 0 mm 7 mps 718 mmHg 67%
    11:00 +26°C° 0 mm 7 mps 718 mmHg 63%
    12:00 +26°C° 0 mm 7 mps 717 mmHg 60%
    13:00 +27°C° 0 mm 7 mps 717 mmHg 58%
    14:00 +27°C° 0 mm 7 mps 716 mmHg 57%
    15:00 +27°C° 0 mm 7 mps 715 mmHg 55%
    16:00 +26°C° 0 mm 7 mps 716 mmHg 60%
    17:00 +26°C° 0 mm 7 mps 716 mmHg 64%
    18:00 +24°C° 0 mm 7 mps 716 mmHg 68%
    19:00 +23°C° 0 mm 6 mps 716 mmHg 71%
    20:00 +23°C° 0 mm 6 mps 717 mmHg 73%
    21:00 +22°C° 0 mm 6 mps 717 mmHg 76%
    22:00 +22°C° 0 mm 6 mps 717 mmHg 77%
    23:00 +22°C° 0 mm 6 mps 717 mmHg 78%
    Show more